Regional Weather Roundup
Issued by NWS

Home | Current Version | Previous Version | Graphics & Text | Print | Product List | Glossary On
Versions: 1 2 3 4 5 6 7 8 9 10 11 12 13 14 15 16 17 18 19 20 21 22 23 24 25 26 27 28 29 30 31 32 33 34 35 36 37 38 39 40 41 42 43 44 45 46 47 48 49 50
000
ASUS45 KBOU 280207
RWRCO

WEATHER ROUNDUP FOR COLORADO
NATIONAL WEATHER SERVICE DENVER/BOULDER CO
800 PM MDT SUN JUL 27 2014

NOTE: "FAIR" INDICATES FEW OR NO CLOUDS BELOW 12000 FEET WITH NO
SIGNIFICANT WEATHER AND/OR OBSTRUCTIONS TO VISIBILITY.

COZ001>005-013-030-031-280300-
...NORTHWEST COLORADO...

CITY           SKY/WX    TMP DP  RH WIND       PRES   REMARKS
CRAIG          PTCLDY    75  43  31 CALM      30.27S
HAYDEN         PTCLDY    82  36  18 CALM      30.30F
MEEKER         PTCLDY    82  39  21 CALM      30.29S
MOUNT WERNER   NOT AVBL
STEAMBOAT SPGS PTCLDY    75  47  36 E5        30.34R
WALDEN         PTCLDY    70  45  40 NE9       30.45R
$$

COZ006>008-011-280300-
...WEST CENTRAL VALLEYS...

CITY           SKY/WX    TMP DP  RH WIND       PRES   REMARKS
GRAND JUNCTION CLOUDY    84  48  28 SE18G29   30.15R
MONTROSE       CLOUDY    76  51  41 CALM      30.30R
EAGLE          CLOUDY    79  50  36 N3        30.32R
RIFLE          MOCLDY    86  41  20 S18       30.20R
DELTA          CLOUDY    78  57  48 N5        30.23F
NUCLA          CLOUDY    73  50  43 CALM      30.31S
$$

COZ017>023-064>068-280300-
...SOUTHWEST COLORADO...

CITY           SKY/WX    TMP DP  RH WIND       PRES   REMARKS
DURANGO        CLOUDY    65  53  65 E7        30.42R
CORTEZ         MOCLDY    78  50  37 SE23G33   30.27R THUNDER
PAGOSA SPRINGS CLOUDY    66  50  57 NW9       30.48R
TELLURIDE      CLOUDY    66  48  52 CALM      30.53F
WOLF CREEK PAS NOT AVBL
$$

COZ009-010-012-014-032>034-037-058>063-280300-
...CENTRAL COLORADO...

CITY           SKY/WX    TMP DP  RH WIND       PRES   REMARKS
ASPEN          CLOUDY    69  45  41 SE15G24   30.45R
BUENA VISTA    LGT RAIN  59  53  82 W3        30.56S
COPPER MTN     MOCLDY    54  43  66 S22       30.79S
BERTHOUD PASS  MOCLDY    45  32  61 SE13      30.85R
COTTONWOOD PAS CLOUDY    55  54  94 CALM      30.68S FOG
GUNNISON       CLOUDY    66  46  48 N8        30.49R
KREMMLING      MOCLDY    72  39  30 S20G29    30.40R
LEADVILLE      CLOUDY    52  49  89 S8        30.65S
MONARCH PASS   CLOUDY    45  43  93 E15       30.90R
SALIDA         CLOUDY   N/A N/A N/A CALM      30.59S
SUNLIGHT       CLOUDY    61  45  55 SE5       30.68F
WILKERSON PASS NOT AVBL
$$

COZ069>075-280300-
...SAN LUIS VALLEY/SANGRE DE CRISTO MOUNTAINS...

CITY           SKY/WX    TMP DP  RH WIND       PRES   REMARKS
ALAMOSA        CLOUDY    66  53  63 SE7       30.45R
LA VETA PASS   CLOUDY    54  52  94 E8        30.68R
SAGUACHE       CLOUDY    64  52  63 CALM      30.48F
$$

COZ035-036-038>040-280300-
...NORTHERN COLORADO FRONT RANGE...

CITY           SKY/WX    TMP DP  RH WIND       PRES   REMARKS
DENVER INTL AP CLOUDY    77  58  51 SW10      30.32R
DMNS CITY PARK   N/A     74  56  52 S3G12     30.32S
AURORA         MOCLDY    73  58  61 S7        30.35F
FRONT RANGE AP MOCLDY    75  59  57 E12G18    30.35R
ERIE MUNI ARPT CLOUDY    77  56  47 NW3       30.30R
BOULDER MUN AP MOCLDY    75  59  57 NW3       30.31S
CENTENNIAL     CLOUDY    70  52  52 W13       30.36F
BROOMFIELD     MOCLDY    77  57  50 S5        30.35R
FORT COLLINS   CLOUDY    79  55  44 E5        30.29S
LONGMONT       CLOUDY    78  59  52 NW7       30.30F
$$

COZ041-046-047-076>085-087-088-280300-
...PIKES PEAK/PALMER DIVIDE AND SOUTHERN FOOTHILLS...

CITY           SKY/WX    TMP DP  RH WIND       PRES   REMARKS
COLO. SPRINGS  CLOUDY    70  55  59 E22       30.40R THUNDER
A. F. ACADEMY  CLOUDY    72  58  61 E10       30.41S
ELLICOTT       TSTM      69  62  78 SE7       30.40R
FALCON         CLOUDY    64  55  71 SE8       30.46S THUNDER
FORT CARSON    TSTM      70  61  74 N15G21    30.37R
LIMON          CLOUDY    75  57  53 SE16      30.35R
MONUMENT HILL  TSTM      63  57  82 SE9G18    30.45R
TRINIDAD       CLOUDY    67  60  78 W14       30.37R
$$

COZ042>045-048>051-090-091-280300-
...NORTHEAST COLORADO...

CITY           SKY/WX    TMP DP  RH WIND       PRES   REMARKS
GREELEY ARPT   CLOUDY    75  54  46 SE16G26   30.29R
AKRON          MOCLDY    79  45  29 SE14      30.31R
BURLINGTON     PTCLDY    76  48  37 SE7       30.30R
WRAY             N/A     80  47  30 NE8       30.27R
STERLING       CLOUDY    82  52  34 SE6       30.26S
HOLYOKE        CLEAR     73  54  49 E6        30.28S
FORT MORGAN    CLOUDY    79  48  33 SE12G17   30.29S
$$

COZ086-089-092>099-280300-
...SOUTHEAST COLORADO...

CITY           SKY/WX    TMP DP  RH WIND       PRES   REMARKS
PUEBLO         CLOUDY    72  58  61 S15G32    30.31R
LA JUNTA       CLOUDY    79  63  57 E16       30.27R
LAMAR          CLOUDY    79  60  52 E14       30.24R
SPRINGFIELD      N/A     73  63  70 SE12      30.29S
$$



USA.gov is the U.S. government's official web portal to all federal, state and local government web resources and services.